Location: Larrial
(48.2758°N, 4.5331°W)
Time: 16:18:57
(UTC+00:00)

AAUSAT CUBESAT 2 - Pass Details

Date: 03 December 2021
Orbit: 572 x 586 km, 97.5° (Epoch: 16 January)

Event Time Altitude Azimuth Distance (km) Brightness Sun altitude
Rises 06:57:58 0° 357° (N) 2,797 ? -8.5°
Reaches altitude 10° 07:00:52 10° 335° (NNW) 1,895 ? -8.1°
Maximum altitude 07:03:14 15° 299° (WNW) 1,582 ? -7.7°
Drops below altitude 10° 07:05:37 10° 264° (W) 1,892 ? -7.3°
Sets 07:08:31 0° 241° (WSW) 2,789 ? -6.9°
